Change the Weather History Date:

Saturday, March 2, 2013

  Actual Average Record
Temperature  
Mean Temperature 50 °F -  
Max Temperature 57 °F 50 °F 64 °F (1965)
Min Temperature 42 °F 36 °F 22 °F (1989)
Degree Days  
Heating Degree Days 16    
Moisture  
Dew Point 43 °F    
Average Humidity 76    
Maximum Humidity 83    
Minimum Humidity 64    
Precipitation  
Precipitation 0.21 in - - ()
Sea Level Pressure  
Sea Level Pressure 30.17 in    
Wind  
Wind Speed 8 mph (SE)    
Max Wind Speed 14 mph    
Max Gust Speed 25 mph    
Visibility 9 miles    
Events Rain    
Averages and records for this station are not official NWS values.
T = Trace of Precipitation, MM = Missing Value Source: NWS Daily Summary

Daily Weather History Graph

Daily Weather History Graph

Search for Another Location

Airport or City:

Trip Planner

Search our weather history database for the weather conditions in past years. The results will help you decide how hot, cold, wet, or windy it might be!

Date:

Astronomy

Mar. 02, 2013 Rise Set
Actual Time 6:47 AM PST 5:56 PM PST
Civil Twilight 6:16 AM PST 6:27 PM PST
Nautical Twilight 5:40 AM PST 7:02 PM PST
Astronomical Twilight 5:05 AM PST 7:38 PM PST
Moon No Moon Rise 8:54 AM PST (3/2)
Length of Visible Light 12h 10m
Length of Day
11h 09m
Waning Gibbous, 73% of the Moon is Illuminated
Mar 2
Waning Gibbous
Mar 4
Last Quarter
Mar 11
New
Mar 19
First Quarter
Mar 27
Full

Hourly Weather History & Observations

Time (PST) Temp. Windchill Dew Point Humidity Pressure Visibility Wind Dir Wind Speed Gust Speed Precip Events Conditions
12:53 AM 54.0 °F - 46.9 °F 77% 30.28 in 10.0 mi SSE 4.6 mph - N/A   Overcast
1:53 AM 53.1 °F - 46.9 °F 80% 30.28 in 10.0 mi SSE 6.9 mph - N/A   Overcast
2:53 AM 53.1 °F - 46.0 °F 77% 30.26 in 10.0 mi SE 10.4 mph - N/A   Overcast
3:53 AM 51.8 °F - 46.4 °F 82% 30.22 in 10.0 mi SE 9.2 mph - N/A   Overcast
4:53 AM 52.0 °F - 45.0 °F 77% 30.21 in 10.0 mi SE 9.2 mph - N/A   Overcast
5:53 AM 51.1 °F - 44.1 °F 77% 30.20 in 10.0 mi SE 9.2 mph - N/A   Overcast
6:53 AM 50.0 °F - 43.0 °F 77% 30.19 in 10.0 mi SE 11.5 mph - N/A   Overcast
7:53 AM 51.1 °F - 43.0 °F 74% 30.17 in 10.0 mi SE 10.4 mph - N/A   Overcast
8:53 AM 52.0 °F - 43.0 °F 71% 30.16 in 10.0 mi SE 9.2 mph - N/A   Partly Cloudy
9:53 AM 55.9 °F - 45.0 °F 67% 30.16 in 10.0 mi South 10.4 mph 18.4 mph N/A   Clear
10:53 AM 57.0 °F - 45.0 °F 64% 30.14 in 10.0 mi South 11.5 mph 19.6 mph N/A   Scattered Clouds
11:53 AM 57.0 °F - 45.0 °F 64% 30.13 in 10.0 mi South 13.8 mph 25.3 mph N/A   Overcast
12:53 PM 57.0 °F - 45.0 °F 64% 30.11 in 10.0 mi SSW 11.5 mph 20.7 mph N/A   Overcast
1:53 PM 55.9 °F - 44.1 °F 64% 30.09 in 10.0 mi SSW 12.7 mph 17.3 mph 0.00 in Rain Light Rain
2:53 PM 53.1 °F - 48.0 °F 83% 30.09 in 7.0 mi WSW 5.8 mph - 0.02 in Rain Light Rain
3:06 PM 53.6 °F - 48.2 °F 82% 30.09 in 3.0 mi SSW 12.7 mph 20.7 mph 0.03 in Rain Rain
3:53 PM 53.1 °F - 48.0 °F 83% 30.08 in 10.0 mi South 9.2 mph - 0.05 in   Overcast
4:00 PM 53.6 °F - 48.2 °F 82% 30.08 in 10.0 mi SW 8.1 mph - N/A   Overcast
4:53 PM 51.1 °F - 42.1 °F 71% 30.09 in 10.0 mi SW 12.7 mph 18.4 mph N/A   Overcast
5:53 PM 46.0 °F 41.4 °F 39.0 °F 76% 30.14 in 10.0 mi NE 9.2 mph - N/A   Overcast
6:00 PM 46.4 °F 42.4 °F 39.2 °F 76% 30.14 in 10.0 mi ENE 8.1 mph - N/A   Overcast
6:53 PM 45.0 °F 40.6 °F 39.0 °F 80% 30.16 in 4.0 mi East 8.1 mph - 0.04 in Rain Rain
7:30 PM 44.6 °F 40.7 °F 39.2 °F 81% 30.17 in 6.0 mi East 6.9 mph - 0.05 in Rain Light Rain
7:53 PM 44.1 °F 39.5 °F 37.9 °F 79% 30.17 in 6.0 mi East 8.1 mph - 0.07 in Rain Light Rain
8:18 PM 42.8 °F 38.0 °F 37.4 °F 81% 30.18 in 10.0 mi East 8.1 mph - 0.00 in   Overcast
8:53 PM 44.1 °F 40.8 °F 37.9 °F 79% 30.19 in 10.0 mi East 5.8 mph - 0.00 in Rain Light Rain
9:03 PM 42.8 °F 41.1 °F 37.4 °F 81% 30.19 in 10.0 mi ESE 3.5 mph - 0.01 in Rain Light Rain
9:53 PM 44.1 °F 39.5 °F 37.9 °F 79% 30.19 in 10.0 mi East 8.1 mph - 0.01 in   Overcast
10:53 PM 43.0 °F 37.7 °F 37.0 °F 80% 30.20 in 10.0 mi ENE 9.2 mph - N/A   Overcast
11:53 PM 42.1 °F 39.2 °F 36.0 °F 79% 30.21 in 10.0 mi East 4.6 mph - 0.02 in Rain Light Rain